Location: Heidgraben
(53.7081°N, 9.6576°E)
Time: 19:31:43
(UTC+00:00)

Cosmos 1408 - Pass Details

Date: 05 July 2020
Orbit: 471 x 493 km, 82.6° (Epoch: 14 August)

Event Time Altitude Azimuth Distance (km) Brightness Sun altitude
Exits shadow 21:29:04 13° 139° (SE) 1,458 4.4 -9.5°
Maximum altitude 21:31:27 24° 90° (E) 1,015 3.9 -9.7°
Drops below altitude 10° 21:34:24 10° 34° (NE) 1,648 5.7 -9.9°
Sets 21:36:45 0° 21° (NNE) 2,531 6.9 -10.0°
